Powrót do katalogu

DELTA 1 DEB

AktywnySSO
NORAD 12270·DEBRIS·🇺🇸 United States

Wystrzelony Mar 5, 1978 z Vandenberg Space Force Base

Loading…

Następne Przeloty (najbliższe 24 godziny)

TLE

ŚwieżeSource: Space-Track

Epoka: Sep 13, 2026, 14:10 UTC

1 12270U 78026DP  26256.59077839  .00000098  00000-0  11123-3 0  9992
2 12270  99.0588 177.8605 0065370 285.4477 199.0756 13.90767056312596

Śledź DELTA 1 DEB w czasie rzeczywistym z AllMySat

Download on the App Store